Time,TemperatureF,DewpointF,PressureIn,WindDirection,WindDirectionDegrees,WindSpeedMPH,WindSpeedGustMPH,Humidity,HourlyPrecipIn,Conditions,Clouds,dailyrainin,SolarRadiationWatts/m^2,SoftwareType,DateUTC
2013-02-23 00:00:00,42.0,31.1,30.05,WNW,297,0.0,0.0,65,0.00,,,0.00,0,Wunderground v.1.15,2013-02-23 06:00:00,
2013-02-23 00:10:00,41.9,31.0,30.05,WNW,286,1.0,1.0,65,0.00,,,0.00,0,Wunderground v.1.15,2013-02-23 06:10:00,
2013-02-23 00:15:00,41.8,30.9,30.05,WNW,300,1.0,1.0,65,0.00,,,0.00,0,Wunderground v.1.15,2013-02-23 06:15:00,
2013-02-23 00:20:00,41.8,30.9,30.05,WNW,292,1.0,1.0,65,0.00,,,0.00,0,Wunderground v.1.15,2013-02-23 06:20:00,
2013-02-23 00:25:00,41.8,30.9,30.04,WNW,300,1.0,1.0,65,0.00,,,0.00,0,Wunderground v.1.15,2013-02-23 06:25:00,
2013-02-23 00:35:00,41.8,30.9,30.03,WNW,294,2.0,3.0,65,0.00,,,0.00,0,Wunderground v.1.15,2013-02-23 06:35:00,
2013-02-23 00:45:00,41.7,30.8,30.04,WNW,300,1.0,2.0,65,0.00,,,0.00,0,Wunderground v.1.15,2013-02-23 06:45:00,
2013-02-23 00:50:00,41.6,30.7,30.04,WNW,299,1.0,1.0,65,0.00,,,0.00,0,Wunderground v.1.15,2013-02-23 06:50:00,
2013-02-23 00:55:00,41.5,30.6,30.05,NW,323,0.0,1.0,65,0.00,,,0.00,0,Wunderground v.1.15,2013-02-23 06:55:00,
2013-02-23 01:00:00,41.4,30.9,30.05,NW,323,0.0,0.0,66,0.00,,,0.00,0,Wunderground v.1.15,2013-02-23 07:00:00,
2013-02-23 01:05:00,41.4,30.9,30.05,WNW,299,1.0,1.0,66,0.00,,,0.00,0,Wunderground v.1.15,2013-02-23 07:05:00,
2013-02-23 01:15:00,41.1,30.6,30.04,WNW,298,1.0,1.0,66,0.00,,,0.00,0,Wunderground v.1.15,2013-02-23 07:15:00,
2013-02-23 01:20:00,41.0,30.5,30.04,WNW,285,1.0,3.0,66,0.00,,,0.00,0,Wunderground v.1.15,2013-02-23 07:20:00,
2013-02-23 01:30:00,40.9,30.8,30.04,WNW,298,1.0,1.0,67,0.00,,,0.00,0,Wunderground v.1.15,2013-02-23 07:30:00,
2013-02-23 01:35:00,40.8,30.7,30.04,NW,304,1.0,1.0,67,0.00,,,0.00,0,Wunderground v.1.15,2013-02-23 07:35:00,
2013-02-23 01:45:00,40.5,30.8,30.04,NW,304,0.0,0.0,68,0.00,,,0.00,0,Wunderground v.1.15,2013-02-23 07:45:00,
2013-02-23 01:50:00,40.4,30.7,30.04,WNW,286,0.0,0.0,68,0.00,,,0.00,0,Wunderground v.1.15,2013-02-23 07:50:00,
2013-02-23 02:00:00,40.2,30.5,30.04,WNW,286,0.0,0.0,68,0.00,,,0.00,0,Wunderground v.1.15,2013-02-23 08:00:00,
2013-02-23 02:05:00,40.1,30.7,30.04,WNW,286,0.0,0.0,69,0.00,,,0.00,0,Wunderground v.1.15,2013-02-23 08:05:00,
2013-02-23 02:10:00,39.9,30.5,30.03,WNW,295,0.0,0.0,69,0.00,,,0.00,0,Wunderground v.1.15,2013-02-23 08:10:00,
2013-02-23 02:15:00,39.7,30.7,30.03,WNW,286,0.0,0.0,70,0.00,,,0.00,0,Wunderground v.1.15,2013-02-23 08:15:00,
2013-02-23 02:20:00,39.6,30.6,30.03,WNW,294,0.0,0.0,70,0.00,,,0.00,0,Wunderground v.1.15,2013-02-23 08:20:00,
2013-02-23 02:30:00,39.2,30.6,30.03,WNW,294,0.0,0.0,71,0.00,,,0.00,0,Wunderground v.1.15,2013-02-23 08:30:00,
2013-02-23 02:35:00,39.0,30.4,30.03,WNW,294,0.0,1.0,71,0.00,,,0.00,0,Wunderground v.1.15,2013-02-23 08:35:00,
2013-02-23 02:45:00,38.8,30.5,30.03,WNW,294,0.0,0.0,72,0.00,,,0.00,0,Wunderground v.1.15,2013-02-23 08:45:00,
2013-02-23 02:55:00,38.4,30.5,30.03,WNW,294,0.0,0.0,73,0.00,,,0.00,0,Wunderground v.1.15,2013-02-23 08:55:00,
2013-02-23 03:05:00,37.9,30.4,30.03,WNW,294,0.0,0.0,74,0.00,,,0.00,0,Wunderground v.1.15,2013-02-23 09:05:00,
2013-02-23 03:10:00,37.7,30.2,30.03,WNW,294,0.0,0.0,74,0.00,,,0.00,0,Wunderground v.1.15,2013-02-23 09:10:00,
2013-02-23 03:15:00,37.6,30.4,30.03,WNW,294,0.0,0.0,75,0.00,,,0.00,0,Wunderground v.1.15,2013-02-23 09:15:00,
2013-02-23 03:20:00,37.4,30.2,30.03,WNW,294,0.0,1.0,75,0.00,,,0.00,0,Wunderground v.1.15,2013-02-23 09:20:00,
2013-02-23 03:25:00,37.3,30.4,30.03,WNW,294,0.0,1.0,76,0.00,,,0.00,0,Wunderground v.1.15,2013-02-23 09:25:00,
2013-02-23 03:30:00,37.1,30.6,30.02,WNW,294,0.0,0.0,77,0.00,,,0.00,0,Wunderground v.1.15,2013-02-23 09:30:00,
2013-02-23 03:40:00,36.8,30.3,30.02,WNW,294,0.0,0.0,77,0.00,,,0.00,0,Wunderground v.1.15,2013-02-23 09:40:00,
2013-02-23 03:50:00,36.4,30.5,30.02,WNW,294,0.0,0.0,79,0.00,,,0.00,0,Wunderground v.1.15,2013-02-23 09:50:00,
2013-02-23 03:55:00,36.3,30.4,30.03,WNW,294,0.0,0.0,79,0.00,,,0.00,0,Wunderground v.1.15,2013-02-23 09:55:00,
2013-02-23 04:00:00,36.1,30.2,30.03,WNW,294,0.0,0.0,79,0.00,,,0.00,0,Wunderground v.1.15,2013-02-23 10:00:00,
2013-02-23 04:05:00,36.0,30.1,30.03,WNW,294,0.0,0.0,79,0.00,,,0.00,0,Wunderground v.1.15,2013-02-23 10:05:00,
2013-02-23 04:15:00,35.9,30.0,30.04,WNW,294,0.0,0.0,79,0.00,,,0.00,0,Wunderground v.1.15,2013-02-23 10:15:00,
2013-02-23 04:25:00,35.4,29.8,30.05,WNW,294,0.0,0.0,80,0.00,,,0.00,0,Wunderground v.1.15,2013-02-23 10:25:00,
2013-02-23 04:30:00,35.0,30.1,30.04,WNW,294,0.0,0.0,82,0.00,,,0.00,0,Wunderground v.1.15,2013-02-23 10:30:00,
2013-02-23 04:35:00,34.8,29.9,30.04,WNW,294,0.0,0.0,82,0.00,,,0.00,0,Wunderground v.1.15,2013-02-23 10:35:00,
2013-02-23 04:40:00,34.7,30.1,30.04,WNW,294,0.0,0.0,83,0.00,,,0.00,0,Wunderground v.1.15,2013-02-23 10:40:00,
2013-02-23 04:45:00,34.6,30.0,30.04,WNW,294,0.0,0.0,83,0.00,,,0.00,0,Wunderground v.1.15,2013-02-23 10:45:00,
2013-02-23 04:55:00,34.4,29.8,30.05,WNW,294,0.0,0.0,83,0.00,,,0.00,0,Wunderground v.1.15,2013-02-23 10:55:00,
2013-02-23 05:05:00,34.3,30.0,30.05,WNW,294,0.0,0.0,84,0.00,,,0.00,0,Wunderground v.1.15,2013-02-23 11:05:00,
2013-02-23 05:15:00,33.8,29.8,30.05,WNW,294,0.0,0.0,85,0.00,,,0.00,0,Wunderground v.1.15,2013-02-23 11:15:00,
2013-02-23 05:20:00,33.6,29.6,30.05,WNW,294,0.0,0.0,85,0.00,,,0.00,0,Wunderground v.1.15,2013-02-23 11:20:00,
2013-02-23 05:30:00,33.2,29.2,30.05,WNW,294,0.0,0.0,85,0.00,,,0.00,0,Wunderground v.1.15,2013-02-23 11:30:00,
2013-02-23 05:35:00,33.0,29.0,30.04,WNW,294,0.0,0.0,85,0.00,,,0.00,0,Wunderground v.1.15,2013-02-23 11:35:00,
2013-02-23 05:45:00,32.5,28.8,30.04,WNW,294,0.0,0.0,86,0.00,,,0.00,0,Wunderground v.1.15,2013-02-23 11:45:00,
2013-02-23 05:50:00,32.4,28.7,30.04,WNW,294,0.0,0.0,86,0.00,,,0.00,0,Wunderground v.1.15,2013-02-23 11:50:00,
2013-02-23 06:00:00,32.1,28.7,30.03,WNW,294,0.0,0.0,87,0.00,,,0.00,0,Wunderground v.1.15,2013-02-23 12:00:00,
2013-02-23 06:10:00,32.0,28.8,30.04,WNW,294,0.0,0.0,88,0.00,,,0.00,0,Wunderground v.1.15,2013-02-23 12:10:00,
2013-02-23 06:15:00,31.8,28.4,30.04,WNW,294,0.0,0.0,87,0.00,,,0.00,0,Wunderground v.1.15,2013-02-23 12:15:00,
2013-02-23 06:20:00,31.8,28.7,30.04,WNW,294,0.0,0.0,88,0.00,,,0.00,0,Wunderground v.1.15,2013-02-23 12:20:00,
2013-02-23 06:25:00,31.7,28.6,30.04,WNW,294,0.0,0.0,88,0.00,,,0.00,0,Wunderground v.1.15,2013-02-23 12:25:00,
2013-02-23 06:30:00,31.6,28.5,30.04,WNW,294,0.0,0.0,88,0.00,,,0.00,0,Wunderground v.1.15,2013-02-23 12:30:00,
2013-02-23 06:35:00,31.5,28.4,30.04,WNW,294,0.0,0.0,88,0.00,,,0.00,0,Wunderground v.1.15,2013-02-23 12:35:00,
2013-02-23 06:40:00,31.4,28.3,30.04,WNW,294,0.0,0.0,88,0.00,,,0.00,0,Wunderground v.1.15,2013-02-23 12:40:00,
2013-02-23 06:50:00,31.4,28.5,30.05,WNW,296,0.0,0.0,89,0.00,,,0.00,0,Wunderground v.1.15,2013-02-23 12:50:00,
2013-02-23 06:55:00,31.4,28.3,30.05,WNW,296,0.0,0.0,88,0.00,,,0.00,0,Wunderground v.1.15,2013-02-23 12:55:00,
2013-02-23 07:00:00,31.3,28.2,30.05,WNW,296,0.0,0.0,88,0.00,,,0.00,0,Wunderground v.1.15,2013-02-23 13:00:00,
2013-02-23 07:05:00,31.2,28.1,30.05,WNW,296,0.0,0.0,88,0.00,,,0.00,0,Wunderground v.1.15,2013-02-23 13:05:00,
2013-02-23 07:10:00,31.2,28.1,30.05,WNW,296,0.0,0.0,88,0.00,,,0.00,5,Wunderground v.1.15,2013-02-23 13:10:00,
2013-02-23 07:20:00,31.5,28.4,30.05,WNW,296,0.0,0.0,88,0.00,,,0.00,11,Wunderground v.1.15,2013-02-23 13:20:00,
2013-02-23 07:25:00,31.3,28.2,30.05,WNW,296,0.0,0.0,88,0.00,,,0.00,14,Wunderground v.1.15,2013-02-23 13:25:00,
2013-02-23 07:30:00,31.2,28.1,30.05,WNW,296,0.0,0.0,88,0.00,,,0.00,16,Wunderground v.1.15,2013-02-23 13:30:00,
2013-02-23 07:35:00,31.0,27.9,30.05,WNW,296,0.0,0.0,88,0.00,,,0.00,19,Wunderground v.1.15,2013-02-23 13:35:00,
2013-02-23 07:40:00,31.0,28.1,30.05,WNW,296,0.0,0.0,89,0.00,,,0.00,32,Wunderground v.1.15,2013-02-23 13:40:00,
2013-02-23 07:45:00,31.0,28.1,30.05,WNW,296,0.0,0.0,89,0.00,,,0.00,63,Wunderground v.1.15,2013-02-23 13:45:00,
2013-02-23 07:50:00,31.4,28.8,30.06,WNW,296,0.0,0.0,90,0.00,,,0.00,44,Wunderground v.1.15,2013-02-23 13:50:00,
2013-02-23 08:00:00,32.7,30.1,30.06,WNW,296,0.0,0.0,90,0.00,,,0.00,102,Wunderground v.1.15,2013-02-23 14:00:00,
2013-02-23 08:05:00,33.5,30.6,30.06,WNW,296,0.0,0.0,89,0.00,,,0.00,118,Wunderground v.1.15,2013-02-23 14:05:00,
2013-02-23 08:10:00,34.6,31.1,30.06,WNW,296,0.0,0.0,87,0.00,,,0.00,95,Wunderground v.1.15,2013-02-23 14:10:00,
2013-02-23 08:15:00,35.7,31.6,30.06,WNW,296,0.0,0.0,85,0.00,,,0.00,176,Wunderground v.1.15,2013-02-23 14:15:00,
2013-02-23 08:20:00,36.9,32.2,30.06,WNW,296,0.0,0.0,83,0.00,,,0.00,111,Wunderground v.1.15,2013-02-23 14:20:00,
2013-02-23 08:30:00,38.9,33.3,30.06,WNW,298,0.0,0.0,80,0.00,,,0.00,241,Wunderground v.1.15,2013-02-23 14:30:00,
2013-02-23 08:35:00,40.2,32.9,30.07,WNW,298,0.0,0.0,75,0.00,,,0.00,262,Wunderground v.1.15,2013-02-23 14:35:00,
2013-02-23 08:40:00,41.3,33.3,30.07,NNW,348,1.0,1.0,73,0.00,,,0.00,279,Wunderground v.1.15,2013-02-23 14:40:00,
2013-02-23 08:45:00,42.0,31.8,30.08,WNW,301,2.0,4.0,67,0.00,,,0.00,301,Wunderground v.1.15,2013-02-23 14:45:00,
2013-02-23 08:50:00,42.8,31.8,30.08,NW,325,3.0,3.0,65,0.00,,,0.00,309,Wunderground v.1.15,2013-02-23 14:50:00,
2013-02-23 09:00:00,44.1,32.3,30.07,NW,314,1.0,6.0,63,0.00,,,0.00,345,Wunderground v.1.15,2013-02-23 15:00:00,
2013-02-23 09:05:00,44.3,31.3,30.07,West,280,2.0,6.0,60,0.00,,,0.00,362,Wunderground v.1.15,2013-02-23 15:05:00,
2013-02-23 09:10:00,44.7,31.2,30.08,WNW,289,2.0,2.0,59,0.00,,,0.00,378,Wunderground v.1.15,2013-02-23 15:10:00,
2013-02-23 09:15:00,44.8,30.9,30.08,West,267,1.0,2.0,58,0.00,,,0.00,394,Wunderground v.1.15,2013-02-23 15:15:00,
2013-02-23 09:20:00,45.0,31.1,30.08,West,264,1.0,1.0,58,0.00,,,0.00,413,Wunderground v.1.15,2013-02-23 15:20:00,
2013-02-23 09:30:00,45.9,32.4,30.08,WSW,250,1.0,1.0,59,0.00,,,0.00,446,Wunderground v.1.15,2013-02-23 15:30:00,
2013-02-23 09:35:00,46.9,32.0,30.07,North,360,1.0,1.0,56,0.00,,,0.00,461,Wunderground v.1.15,2013-02-23 15:35:00,
2013-02-23 09:45:00,47.3,31.9,30.08,West,262,0.0,3.0,55,0.00,,,0.00,497,Wunderground v.1.15,2013-02-23 15:45:00,
2013-02-23 09:50:00,47.5,32.1,30.08,West,263,1.0,1.0,55,0.00,,,0.00,513,Wunderground v.1.15,2013-02-23 15:50:00,
2013-02-23 10:00:00,47.9,32.0,30.08,WSW,249,1.0,1.0,54,0.00,,,0.00,550,Wunderground v.1.15,2013-02-23 16:00:00,
2013-02-23 10:05:00,48.5,33.9,30.07,WSW,250,1.0,1.0,57,0.00,,,0.00,564,Wunderground v.1.15,2013-02-23 16:05:00,
2013-02-23 10:10:00,49.7,33.7,30.08,NNW,328,0.0,2.0,54,0.00,,,0.00,571,Wunderground v.1.15,2013-02-23 16:10:00,
2013-02-23 10:20:00,50.5,33.5,30.07,West,263,0.0,0.0,52,0.00,,,0.00,594,Wunderground v.1.15,2013-02-23 16:20:00,
2013-02-23 10:25:00,51.5,34.0,30.07,SW,232,0.0,1.0,51,0.00,,,0.00,610,Wunderground v.1.15,2013-02-23 16:25:00,
2013-02-23 10:35:00,52.3,33.2,30.07,WSW,257,1.0,1.0,48,0.00,,,0.00,612,Wunderground v.1.15,2013-02-23 16:35:00,
2013-02-23 10:40:00,52.4,33.8,30.06,WSW,257,1.0,1.0,49,0.00,,,0.00,642,Wunderground v.1.15,2013-02-23 16:40:00,
2013-02-23 10:45:00,53.2,34.0,30.06,WSW,258,0.0,1.0,48,0.00,,,0.00,663,Wunderground v.1.15,2013-02-23 16:45:00,
2013-02-23 10:50:00,53.2,34.0,30.06,WSW,256,1.0,1.0,48,0.00,,,0.00,671,Wunderground v.1.15,2013-02-23 16:50:00,
2013-02-23 10:55:00,54.2,35.9,30.06,WSW,250,1.0,1.0,50,0.00,,,0.00,680,Wunderground v.1.15,2013-02-23 16:55:00,
2013-02-23 11:05:00,55.0,35.1,30.06,NNW,338,1.0,1.0,47,0.00,,,0.00,701,Wunderground v.1.15,2013-02-23 17:05:00,
2013-02-23 11:10:00,55.8,35.3,30.05,NNW,327,0.0,0.0,46,0.00,,,0.00,712,Wunderground v.1.15,2013-02-23 17:10:00,
2013-02-23 11:15:00,56.3,36.8,30.05,East,83,0.0,0.0,48,0.00,,,0.00,722,Wunderground v.1.15,2013-02-23 17:15:00,
2013-02-23 11:25:00,57.1,35.9,30.05,ENE,61,0.0,1.0,45,0.00,,,0.00,737,Wunderground v.1.15,2013-02-23 17:25:00,
2013-02-23 11:30:00,57.9,36.1,30.05,ESE,105,1.0,1.0,44,0.00,,,0.00,742,Wunderground v.1.15,2013-02-23 17:30:00,
2013-02-23 11:35:00,59.1,36.6,30.04,SE,127,0.0,1.0,43,0.00,,,0.00,752,Wunderground v.1.15,2013-02-23 17:35:00,
2013-02-23 11:45:00,60.5,36.7,30.04,South,176,0.0,3.0,41,0.00,,,0.00,765,Wunderground v.1.15,2013-02-23 17:45:00,
2013-02-23 11:50:00,61.3,37.4,30.04,SSW,201,1.0,1.0,41,0.00,,,0.00,768,Wunderground v.1.15,2013-02-23 17:50:00,
2013-02-23 12:00:00,60.9,38.2,30.03,South,171,2.0,2.0,43,0.00,,,0.00,784,Wunderground v.1.15,2013-02-23 18:00:00,
2013-02-23 12:10:00,63.1,39.0,30.03,South,170,1.0,5.0,41,0.00,,,0.00,788,Wunderground v.1.15,2013-02-23 18:10:00,
2013-02-23 12:20:00,63.5,38.1,30.02,SW,227,3.0,5.0,39,0.00,,,0.00,793,Wunderground v.1.15,2013-02-23 18:20:00,
2013-02-23 12:25:00,64.0,38.5,30.02,South,180,3.0,5.0,39,0.00,,,0.00,800,Wunderground v.1.15,2013-02-23 18:25:00,
2013-02-23 12:30:00,64.4,38.2,30.02,SSW,198,3.0,3.0,38,0.00,,,0.00,800,Wunderground v.1.15,2013-02-23 18:30:00,
2013-02-23 12:35:00,64.6,37.0,30.02,WSW,251,4.0,4.0,36,0.00,,,0.00,800,Wunderground v.1.15,2013-02-23 18:35:00,
2013-02-23 12:40:00,64.5,37.6,30.01,WSW,247,3.0,3.0,37,0.00,,,0.00,802,Wunderground v.1.15,2013-02-23 18:40:00,
2013-02-23 12:50:00,64.5,36.9,30.00,South,184,4.0,6.0,36,0.00,,,0.00,802,Wunderground v.1.15,2013-02-23 18:50:00,
2013-02-23 12:55:00,65.0,37.4,30.00,South,175,5.0,6.0,36,0.00,,,0.00,805,Wunderground v.1.15,2013-02-23 18:55:00,
2013-02-23 13:00:00,65.8,37.4,30.00,SSE,165,4.0,4.0,35,0.00,,,0.00,802,Wunderground v.1.15,2013-02-23 19:00:00,
2013-02-23 13:05:00,66.0,36.8,29.99,West,272,3.0,4.0,34,0.00,,,0.00,805,Wunderground v.1.15,2013-02-23 19:05:00,
2013-02-23 13:10:00,66.1,36.9,29.99,SW,225,4.0,4.0,34,0.00,,,0.00,800,Wunderground v.1.15,2013-02-23 19:10:00,
2013-02-23 13:15:00,66.7,37.4,29.98,SSE,167,3.0,5.0,34,0.00,,,0.00,796,Wunderground v.1.15,2013-02-23 19:15:00,
2013-02-23 13:20:00,67.2,37.9,29.98,WSW,246,2.0,2.0,34,0.00,,,0.00,798,Wunderground v.1.15,2013-02-23 19:20:00,
2013-02-23 13:25:00,67.6,36.7,29.98,WSW,251,3.0,4.0,32,0.00,,,0.00,793,Wunderground v.1.15,2013-02-23 19:25:00,
2013-02-23 13:30:00,67.5,36.6,29.97,SW,226,3.0,3.0,32,0.00,,,0.00,789,Wunderground v.1.15,2013-02-23 19:30:00,
2013-02-23 13:35:00,67.7,36.8,29.97,SSW,210,3.0,7.0,32,0.00,,,0.00,788,Wunderground v.1.15,2013-02-23 19:35:00,
2013-02-23 13:45:00,67.6,36.7,29.97,South,183,4.0,8.0,32,0.00,,,0.00,777,Wunderground v.1.15,2013-02-23 19:45:00,
2013-02-23 13:50:00,67.9,36.9,29.96,SSW,196,4.0,4.0,32,0.00,,,0.00,770,Wunderground v.1.15,2013-02-23 19:50:00,
2013-02-23 13:55:00,68.5,35.8,29.96,West,278,4.0,4.0,30,0.00,,,0.00,765,Wunderground v.1.15,2013-02-23 19:55:00,
2013-02-23 14:00:00,68.7,36.8,29.95,SW,225,3.0,3.0,31,0.00,,,0.00,752,Wunderground v.1.15,2013-02-23 20:00:00,
2013-02-23 14:05:00,68.6,35.1,29.95,WSW,238,3.0,8.0,29,0.00,,,0.00,751,Wunderground v.1.15,2013-02-23 20:05:00,
2013-02-23 14:10:00,68.3,35.6,29.95,WSW,250,5.0,5.0,30,0.00,,,0.00,740,Wunderground v.1.15,2013-02-23 20:10:00,
2013-02-23 14:15:00,69.2,36.4,29.94,SSE,155,5.0,5.0,30,0.00,,,0.00,738,Wunderground v.1.15,2013-02-23 20:15:00,
2013-02-23 14:20:00,69.4,33.9,29.94,SW,235,4.0,4.0,27,0.00,,,0.00,724,Wunderground v.1.15,2013-02-23 20:20:00,
2013-02-23 14:25:00,69.1,34.6,29.94,South,184,5.0,9.0,28,0.00,,,0.00,717,Wunderground v.1.15,2013-02-23 20:25:00,
2013-02-23 14:30:00,68.9,34.4,29.94,West,259,5.0,6.0,28,0.00,,,0.00,708,Wunderground v.1.15,2013-02-23 20:30:00,
2013-02-23 14:40:00,69.3,32.9,29.94,WNW,298,4.0,4.0,26,0.00,,,0.00,691,Wunderground v.1.15,2013-02-23 20:40:00,
2013-02-23 14:45:00,68.7,34.3,29.94,SSW,199,5.0,7.0,28,0.00,,,0.00,679,Wunderground v.1.15,2013-02-23 20:45:00,
2013-02-23 14:55:00,68.6,34.2,29.93,SW,221,4.0,7.0,28,0.00,,,0.00,654,Wunderground v.1.15,2013-02-23 20:55:00,
2013-02-23 15:00:00,68.5,35.0,29.93,West,263,5.0,5.0,29,0.00,,,0.00,638,Wunderground v.1.15,2013-02-23 21:00:00,
2013-02-23 15:10:00,68.5,34.1,29.93,West,266,4.0,7.0,28,0.00,,,0.00,617,Wunderground v.1.15,2013-02-23 21:10:00,
2013-02-23 15:15:00,68.5,34.1,29.93,West,267,5.0,8.0,28,0.00,,,0.00,601,Wunderground v.1.15,2013-02-23 21:15:00,
2013-02-23 15:25:00,68.2,33.8,29.92,WSW,252,6.0,9.0,28,0.00,,,0.00,580,Wunderground v.1.15,2013-02-23 21:25:00,
2013-02-23 15:30:00,67.6,33.3,29.92,WSW,257,6.0,6.0,28,0.00,,,0.00,566,Wunderground v.1.15,2013-02-23 21:30:00,
2013-02-23 15:35:00,68.1,33.7,29.92,WNW,296,6.0,9.0,28,0.00,,,0.00,462,Wunderground v.1.15,2013-02-23 21:35:00,
2013-02-23 15:45:00,68.7,34.3,29.92,WSW,238,3.0,5.0,28,0.00,,,0.00,473,Wunderground v.1.15,2013-02-23 21:45:00,
2013-02-23 15:50:00,69.1,33.7,29.92,SW,217,2.0,5.0,27,0.00,,,0.00,503,Wunderground v.1.15,2013-02-23 21:50:00,
2013-02-23 16:00:00,68.6,33.3,29.91,SSW,200,4.0,4.0,27,0.00,,,0.00,466,Wunderground v.1.15,2013-02-23 22:00:00,
2013-02-23 16:05:00,68.9,34.4,29.91,WSW,258,4.0,6.0,28,0.00,,,0.00,425,Wunderground v.1.15,2013-02-23 22:05:00,
2013-02-23 16:10:00,68.9,33.5,29.91,WSW,249,3.0,4.0,27,0.00,,,0.00,446,Wunderground v.1.15,2013-02-23 22:10:00,
2013-02-23 16:20:00,68.9,33.5,29.90,SW,224,3.0,3.0,27,0.00,,,0.00,406,Wunderground v.1.15,2013-02-23 22:20:00,
2013-02-23 16:25:00,69.3,32.9,29.90,SW,234,1.0,3.0,26,0.00,,,0.00,392,Wunderground v.1.15,2013-02-23 22:25:00,
2013-02-23 16:35:00,69.6,33.2,29.90,West,262,1.0,3.0,26,0.00,,,0.00,353,Wunderground v.1.15,2013-02-23 22:35:00,
2013-02-23 16:45:00,70.1,34.5,29.90,South,170,1.0,2.0,27,0.00,,,0.00,315,Wunderground v.1.15,2013-02-23 22:45:00,
2013-02-23 16:50:00,69.5,35.8,29.90,NW,320,1.0,2.0,29,0.00,,,0.00,295,Wunderground v.1.15,2013-02-23 22:50:00,
2013-02-23 17:00:00,69.0,37.9,29.90,WNW,300,1.0,1.0,32,0.00,,,0.00,262,Wunderground v.1.15,2013-02-23 23:00:00,
2013-02-23 17:10:00,69.9,36.2,29.90,West,260,0.0,0.0,29,0.00,,,0.00,225,Wunderground v.1.15,2013-02-23 23:10:00,
2013-02-23 17:15:00,69.9,35.3,29.90,West,260,0.0,0.0,28,0.00,,,0.00,204,Wunderground v.1.15,2013-02-23 23:15:00,
2013-02-23 17:20:00,69.0,36.3,29.90,North,11,0.0,1.0,30,0.00,,,0.00,183,Wunderground v.1.15,2013-02-23 23:20:00,
2013-02-23 17:30:00,67.0,35.3,29.90,NNE,13,1.0,1.0,31,0.00,,,0.00,137,Wunderground v.1.15,2013-02-23 23:30:00,
2013-02-23 17:40:00,66.2,35.4,29.90,NNE,12,1.0,1.0,32,0.00,,,0.00,98,Wunderground v.1.15,2013-02-23 23:40:00,
2013-02-23 17:45:00,66.1,36.1,29.90,NNW,333,0.0,1.0,33,0.00,,,0.00,79,Wunderground v.1.15,2013-02-23 23:45:00,
2013-02-23 17:50:00,65.8,35.9,29.90,North,355,0.0,0.0,33,0.00,,,0.00,62,Wunderground v.1.15,2013-02-23 23:50:00,
2013-02-23 17:55:00,65.5,37.8,29.90,North,355,0.0,0.0,36,0.00,,,0.00,46,Wunderground v.1.15,2013-02-23 23:55:00,
2013-02-23 18:00:00,65.1,36.8,29.90,North,5,0.0,1.0,35,0.00,,,0.00,32,Wunderground v.1.15,2013-02-24 00:00:00,
2013-02-23 18:10:00,63.8,37.0,29.90,North,5,0.0,0.0,37,0.00,,,0.00,14,Wunderground v.1.15,2013-02-24 00:10:00,
2013-02-23 18:20:00,62.7,38.0,29.90,North,5,0.0,0.0,40,0.00,,,0.00,9,Wunderground v.1.15,2013-02-24 00:20:00,
2013-02-23 18:25:00,62.1,38.7,29.90,North,5,0.0,0.0,42,0.00,,,0.00,7,Wunderground v.1.15,2013-02-24 00:25:00,
2013-02-23 18:30:00,61.3,37.4,29.90,North,5,0.0,0.0,41,0.00,,,0.00,0,Wunderground v.1.15,2013-02-24 00:30:00,
2013-02-23 18:35:00,60.5,37.9,29.90,North,5,0.0,0.0,43,0.00,,,0.00,0,Wunderground v.1.15,2013-02-24 00:35:00,
2013-02-23 18:40:00,59.7,37.7,29.90,North,5,0.0,0.0,44,0.00,,,0.00,0,Wunderground v.1.15,2013-02-24 00:40:00,
2013-02-23 18:45:00,58.5,37.2,29.90,North,5,0.0,0.0,45,0.00,,,0.00,0,Wunderground v.1.15,2013-02-24 00:45:00,
2013-02-23 18:55:00,57.1,37.0,29.91,North,351,1.0,1.0,47,0.00,,,0.00,0,Wunderground v.1.15,2013-02-24 00:55:00,
2013-02-23 19:00:00,56.7,37.7,29.91,North,351,0.0,0.0,49,0.00,,,0.00,0,Wunderground v.1.15,2013-02-24 01:00:00,
2013-02-23 19:05:00,55.6,37.7,29.91,North,351,0.0,0.0,51,0.00,,,0.00,0,Wunderground v.1.15,2013-02-24 01:05:00,
2013-02-23 19:10:00,54.7,36.9,29.91,North,351,0.0,0.0,51,0.00,,,0.00,0,Wunderground v.1.15,2013-02-24 01:10:00,
2013-02-23 19:15:00,54.5,37.2,29.91,North,351,0.0,0.0,52,0.00,,,0.00,0,Wunderground v.1.15,2013-02-24 01:15:00,
2013-02-23 19:25:00,53.2,37.0,29.92,NNW,344,0.0,0.0,54,0.00,,,0.00,0,Wunderground v.1.15,2013-02-24 01:25:00,
2013-02-23 19:30:00,52.6,36.9,29.92,NNW,344,0.0,0.0,55,0.00,,,0.00,0,Wunderground v.1.15,2013-02-24 01:30:00,
2013-02-23 19:35:00,52.5,36.8,29.92,North,355,0.0,0.0,55,0.00,,,0.00,0,Wunderground v.1.15,2013-02-24 01:35:00,
2013-02-23 19:40:00,52.7,37.0,29.93,North,5,0.0,0.0,55,0.00,,,0.00,0,Wunderground v.1.15,2013-02-24 01:40:00,
2013-02-23 19:45:00,52.9,37.2,29.92,NNW,342,0.0,0.0,55,0.00,,,0.00,0,Wunderground v.1.15,2013-02-24 01:45:00,
2013-02-23 19:50:00,53.1,37.3,29.93,NW,318,0.0,0.0,55,0.00,,,0.00,0,Wunderground v.1.15,2013-02-24 01:50:00,
2013-02-23 20:00:00,52.5,36.8,29.93,NNW,331,0.0,0.0,55,0.00,,,0.00,0,Wunderground v.1.15,2013-02-24 02:00:00,
2013-02-23 20:05:00,52.2,36.5,29.93,North,355,0.0,0.0,55,0.00,,,0.00,0,Wunderground v.1.15,2013-02-24 02:05:00,
2013-02-23 20:15:00,51.7,36.5,29.94,North,5,0.0,1.0,56,0.00,,,0.00,0,Wunderground v.1.15,2013-02-24 02:15:00,
2013-02-23 20:20:00,51.8,36.6,29.94,NNE,26,1.0,1.0,56,0.00,,,0.00,0,Wunderground v.1.15,2013-02-24 02:20:00,
2013-02-23 20:30:00,51.6,36.4,29.94,NNE,12,0.0,0.0,56,0.00,,,0.00,0,Wunderground v.1.15,2013-02-24 02:30:00,
2013-02-23 20:35:00,51.5,36.3,29.94,North,11,0.0,0.0,56,0.00,,,0.00,0,Wunderground v.1.15,2013-02-24 02:35:00,
2013-02-23 20:45:00,51.2,36.5,29.95,North,5,0.0,0.0,57,0.00,,,0.00,0,Wunderground v.1.15,2013-02-24 02:45:00,
2013-02-23 20:50:00,50.9,36.2,29.95,North,5,0.0,0.0,57,0.00,,,0.00,0,Wunderground v.1.15,2013-02-24 02:50:00,
2013-02-23 20:55:00,50.4,36.2,29.95,North,5,0.0,0.0,58,0.00,,,0.00,0,Wunderground v.1.15,2013-02-24 02:55:00,
2013-02-23 21:05:00,49.7,35.9,29.95,North,5,0.0,0.0,59,0.00,,,0.00,0,Wunderground v.1.15,2013-02-24 03:05:00,
2013-02-23 21:15:00,48.5,35.7,29.95,North,5,0.0,0.0,61,0.00,,,0.00,0,Wunderground v.1.15,2013-02-24 03:15:00,
2013-02-23 21:20:00,47.8,35.8,29.95,North,5,0.0,1.0,63,0.00,,,0.00,0,Wunderground v.1.15,2013-02-24 03:20:00,
2013-02-23 21:25:00,47.1,35.5,29.95,North,5,0.0,1.0,64,0.00,,,0.00,0,Wunderground v.1.15,2013-02-24 03:25:00,
2013-02-23 21:35:00,46.2,35.5,29.95,North,5,0.0,0.0,66,0.00,,,0.00,0,Wunderground v.1.15,2013-02-24 03:35:00,
2013-02-23 21:45:00,45.7,35.4,29.95,North,5,0.0,0.0,67,0.00,,,0.00,0,Wunderground v.1.15,2013-02-24 03:45:00,
2013-02-23 21:50:00,45.1,35.2,29.95,North,5,0.0,0.0,68,0.00,,,0.00,0,Wunderground v.1.15,2013-02-24 03:50:00,
2013-02-23 22:00:00,44.3,35.1,29.95,North,5,0.0,0.0,70,0.00,,,0.00,0,Wunderground v.1.15,2013-02-24 04:00:00,
2013-02-23 22:05:00,44.0,34.8,29.96,North,5,0.0,0.0,70,0.00,,,0.00,0,Wunderground v.1.15,2013-02-24 04:05:00,
2013-02-23 22:10:00,43.4,34.6,29.95,North,5,0.0,0.0,71,0.00,,,0.00,0,Wunderground v.1.15,2013-02-24 04:10:00,
2013-02-23 22:15:00,42.9,34.5,29.95,North,5,0.0,0.0,72,0.00,,,0.00,0,Wunderground v.1.15,2013-02-24 04:15:00,
2013-02-23 22:20:00,42.5,34.5,29.95,North,5,0.0,0.0,73,0.00,,,0.00,0,Wunderground v.1.15,2013-02-24 04:20:00,
2013-02-23 22:25:00,42.4,34.4,29.95,North,5,0.0,0.0,73,0.00,,,0.00,0,Wunderground v.1.15,2013-02-24 04:25:00,
2013-02-23 22:30:00,42.1,34.1,29.95,North,5,0.0,0.0,73,0.00,,,0.00,0,Wunderground v.1.15,2013-02-24 04:30:00,
2013-02-23 22:40:00,41.0,34.0,29.95,North,5,0.0,0.0,76,0.00,,,0.00,0,Wunderground v.1.15,2013-02-24 04:40:00,
2013-02-23 22:45:00,40.7,33.4,29.95,North,5,0.0,0.0,75,0.00,,,0.00,0,Wunderground v.1.15,2013-02-24 04:45:00,
2013-02-23 22:50:00,40.4,33.1,29.95,North,5,0.0,0.0,75,0.00,,,0.00,0,Wunderground v.1.15,2013-02-24 04:50:00,
2013-02-23 22:55:00,40.0,33.0,29.95,North,5,0.0,0.0,76,0.00,,,0.00,0,Wunderground v.1.15,2013-02-24 04:55:00,
2013-02-23 23:00:00,39.4,32.8,29.95,North,5,0.0,0.0,77,0.00,,,0.00,0,Wunderground v.1.15,2013-02-24 05:00:00,
2013-02-23 23:05:00,39.0,32.7,29.95,North,5,0.0,0.0,78,0.00,,,0.00,0,Wunderground v.1.15,2013-02-24 05:05:00,
2013-02-23 23:10:00,38.7,32.4,29.95,North,5,0.0,0.0,78,0.00,,,0.00,0,Wunderground v.1.15,2013-02-24 05:10:00,
2013-02-23 23:15:00,38.2,32.3,29.94,North,5,0.0,0.0,79,0.00,,,0.00,0,Wunderground v.1.15,2013-02-24 05:15:00,
2013-02-23 23:25:00,37.5,31.9,29.94,North,5,0.0,0.0,80,0.00,,,0.00,0,Wunderground v.1.15,2013-02-24 05:25:00,
2013-02-23 23:30:00,37.3,31.7,29.95,North,5,0.0,0.0,80,0.00,,,0.00,0,Wunderground v.1.15,2013-02-24 05:30:00,
2013-02-23 23:35:00,37.1,31.8,29.94,North,5,0.0,0.0,81,0.00,,,0.00,0,Wunderground v.1.15,2013-02-24 05:35:00,
2013-02-23 23:40:00,36.8,31.5,29.94,North,5,0.0,0.0,81,0.00,,,0.00,0,Wunderground v.1.15,2013-02-24 05:40:00,
2013-02-23 23:50:00,36.2,31.2,29.93,North,5,0.0,0.0,82,0.00,,,0.00,0,Wunderground v.1.15,2013-02-24 05:50:00,
2013-02-23 23:55:00,36.0,31.3,29.94,North,5,0.0,0.0,83,0.00,,,0.00,0,Wunderground v.1.15,2013-02-24 05:55:00,